This is the latest recevied weather packets stored in our database for station/object N0NPO. If no packets are shown the sender has not sent any weather packets the latest 10 day(s).
| Time | Temp. | Humidity | Pressure | Rain* | Wind** | Luminosity | Snow |
|---|---|---|---|---|---|---|---|
| 1778201714 | 17.22° C | 1% | 1012.7 hPa | 0 mm | - | 46 W/m² | - |
| 1778201411 | 17.78° C | 1% | 1012.6 hPa | 0 mm | - | 66 W/m² | - |
| 1778201107 | 17.78° C | 1% | 1012.7 hPa | 0 mm | - | 84 W/m² | - |
| 1778200804 | 17.78° C | 1% | 1012.7 hPa | 0 mm | - | 95 W/m² | - |
| 1778200501 | 18.33° C | 1% | 1012.9 hPa | 0 mm | - | 105 W/m² | - |
| 1778200198 | 17.78° C | 1% | 1012.7 hPa | 0 mm | - | 124 W/m² | - |
| 1778199894 | 17.78° C | 1% | 1012.9 hPa | 0 mm | - | 144 W/m² | - |
| 1778199590 | 17.78° C | 1% | 1012.6 hPa | 0 mm | - | 114 W/m² | - |
| 1778199287 | 17.78° C | 1% | 1012.7 hPa | 0 mm | - | 143 W/m² | - |
| 1778198984 | 18.33° C | 1% | 1012.7 hPa | 0 mm | - | 169 W/m² | - |
| 1778198679 | 18.33° C | 1% | 1012.5 hPa | 0 mm | - | 154 W/m² | - |
| 1778198376 | 17.78° C | 1% | 1012.6 hPa | 0 mm | - | 170 W/m² | - |
| 1778198073 | 17.22° C | 1% | 1012.7 hPa | 0 mm | - | 172 W/m² | - |
| 1778197771 | 17.22° C | 1% | 1012.9 hPa | 0 mm | - | 204 W/m² | - |
| 1778197467 | 17.78° C | 1% | 1012.9 hPa | 0 mm | - | 201 W/m² | - |
| 1778197164 | 18.33° C | 1% | 1012.9 hPa | 0 mm | - | 191 W/m² | - |
| 1778196861 | 17.78° C | 1% | 1012.7 hPa | 0 mm | - | 193 W/m² | - |
| 1778196559 | 18.89° C | 1% | 1012.9 hPa | 0 mm | - | 265 W/m² | - |
| 1778196255 | 18.33° C | 1% | 1013.1 hPa | 0 mm | - | 270 W/m² | - |
| 1778195953 | 17.78° C | 1% | 1013.1 hPa | 0 mm | - | 220 W/m² | - |
| 1778195649 | 18.89° C | 1% | 1012.9 hPa | 0 mm | - | 328 W/m² | - |
| 1778195345 | 17.78° C | 1% | 1012.7 hPa | 0 mm | - | 349 W/m² | - |
| 1778195043 | 17.22° C | 1% | 1012.7 hPa | 0 mm | - | 328 W/m² | - |
| 1778194743 | 17.78° C | 1% | 1012.6 hPa | 0 mm | - | 401 W/m² | - |
| 1778194439 | 18.33° C | 1% | 1012.9 hPa | 0 mm | - | 356 W/m² | - |
* Rain latest hour (hover to see other rain measurements)
** Current wind speed in m/s (hover to see current wind gust speed)